Regional Weather Roundup
Issued by NWS

Home | Current Version | Previous Version | Graphics & Text | Print | Product List | Glossary On
Versions: 1 2 3 4 5 6 7 8 9 10 11 12 13 14 15 16 17 18 19 20 21 22 23 24 25 26 27 28 29 30 31 32 33 34 35 36 37 38 39 40 41 42 43 44 45 46 47 48 49 50
000
ASUS45 KABQ 212001
RWRNM
NEW MEXICO REGIONAL WEATHER ROUNDUP
NATIONAL WEATHER SERVICE ALBUQUERQUE NM
100 PM MST TUE FEB 21 2017

NOTE: "FAIR" MEANS FEW OR NO CLOUDS BELOW 12,000 FEET AGL WITH NO
       SIGNIFICANT WEATHER OR OBSTRUCTIONS TO VISION.

      THIS PRODUCT IS RELEASED AS TWO VERSIONS.  ONE VERSION NEAR
      THE TOP OF THE HOUR CONTAINING PRELIMINARY DATA FROM ALBUQUERQUE
      AND OTHER STATIONS.  A FINAL VERSION WITH ADDITIONAL DATA IS
      ISSUED ABOUT 10 MINUTES AFTER THE HOUR.

NMZ501-503-504-510>518-212100-
NORTHWEST PLATEAU/NORTHCENTRAL MOUNTAINS

CITY           SKY/WX    TMP DP  RH WIND       PRES   REMARKS
FARMINGTON     FAIR      58  33  39 VRB3      30.30F
LOS ALAMOS     FAIR      57  29  33 S6        30.33F
SANTA FE       FAIR      62  28  27 NW12G18   30.28F
TAOS             N/A     54  27  35 SW6       30.31F
ANGEL FIRE     FAIR      56  24  29 SW16      30.31F

$$
NMZ402-403-502-505>509-212100-
WESTCENTRAL MOUNTAINS/SOUTHWEST MOUNTAINS

CITY           SKY/WX    TMP DP  RH WIND       PRES   REMARKS
GALLUP         FAIR      59  36  42 SW14      30.36F
GRANTS         FAIR      61  32  32 N12       30.35F
SILVER CITY    FAIR      65  38  36 S9        30.31F

$$
NMZ407-409-411-412-212100-
SOUTHERN DESERTS

CITY           SKY/WX    TMP DP  RH WIND       PRES   REMARKS
DEMING         FAIR      66  36  32 VRB3      30.28F
LAS CRUCES     FAIR      67  32  27 CALM      30.29F
HOLLOMAN AFB   FAIR      68  34  28 NW12G21   30.28F
ALAMOGORDO     FAIR      68  32  26 NW15G24   30.26F
T OR C         FAIR      64  34  32 VRB5      30.28F

$$
NMZ519>523-212100-
CENTRAL VALLEYS/CENTRAL HIGHLANDS

CITY           SKY/WX    TMP DP  RH WIND       PRES   REMARKS
ALBUQUERQUE    FAIR      62  33  33 CALM      30.30F
DOUBLE EAGLE   SUNNY     63  34  34 W10       30.31F
MORIARTY ARPT  FAIR      67  24  19 NW21G28   30.28F
CLINES CORNERS FAIR      62  22  21 NW31G37   30.26F
BELEN          FAIR      64  32  30 NW8       30.29F
SOCORRO        FAIR      66  33  29 N9        30.27F

$$
NMZ524>526-539-540-212100-
SOUTHCENTRAL MOUNTAINS

CITY           SKY/WX    TMP DP  RH WIND       PRES   REMARKS
RUIDOSO        NOT AVBL

$$
NMZ527>531-212100-
NORTHEAST HIGHLANDS/NORTHEAST PLAINS

CITY           SKY/WX    TMP DP  RH WIND       PRES   REMARKS
LAS VEGAS      FAIR      72  -9   4 NW12G20   30.20F
RATON          NOT AVBL
CLAYTON        FAIR      78  16   9 VRB7      30.09F

$$
NMZ532>537-212100-
EASTCENTRAL PLAINS

CITY           SKY/WX    TMP DP  RH WIND       PRES   REMARKS
TUCUMCARI      FAIR      74  19  12 E6        30.07F
CANNON AFB     FAIR      76  18  11 CALM      30.10F
CLOVIS AIRPORT FAIR      73  25  16 W5        30.10F

$$
NMZ028-029-538-212100-
SOUTHEAST PLAINS

CITY           SKY/WX    TMP DP  RH WIND       PRES   REMARKS
ROSWELL        FAIR      82  27  13 NW17        N/A
ARTESIA        FAIR      79  32  18 VRB5G14   30.10F
CARLSBAD       FAIR      81  26  13 CALM      30.08F
HOBBS          SUNNY     75  32  20 W12G18    30.12F


$$




USA.gov is the U.S. government's official web portal to all federal, state and local government web resources and services.